Springfield, IL

8:23 PM CST on December 15, 2019 (GMT -0600)
Capital

Weather History for KSPI - October, 2019

Change the Weather History Date:

Wednesday, October 2, 2019

  Actual Average Record
Temperature  
Mean Temperature 80 °F 60 °F  
Max Temperature 88 °F 72 °F 93 °F (1953)
Min Temperature 71 °F 48 °F 23 °F (2003)
Degree Days  
Heating Degree Days 0 7  
Month to date heating degree days 0 13  
Since 1 July heating degree days 1 94  
Cooling Degree Days 15 2  
Month to date cooling degree days 32 4  
Year to date cooling degree days 1309 1103  
Growing Degree Days 29 (Base 50)    
Moisture  
Dew Point 69 °F    
Average Humidity 79    
Maximum Humidity 100    
Minimum Humidity 57    
Precipitation  
Precipitation 0.00 in 0.10 in 2.55 in (1881)
Month to date precipitation 0.00 0.20  
Year to date precipitation 40.55 28.75  
Snow  
Snow 0.00 in 0.00 in 0.00 in ()
Month to date snowfall 0.0 0.0  
Since 1 July snowfall 0.0 0.0  
Since 1 September snowfall 0.0 0.0  
Snow Depth 0.00 in    
Sea Level Pressure  
Sea Level Pressure 29.89 in    
Wind  
Wind Speed 7 mph (SW)    
Max Wind Speed 20 mph    
Max Gust Speed 28 mph    
Visibility 10 miles    
Events      
T = Trace of Precipitation, MM = Missing Value Source: NWS Daily Summary

Daily Weather History Graph

Daily Weather History Graph

Search for Another Location

Airport or City:

Astronomy

Oct. 02, 2019 Rise Set
Actual Time 6:55 AM CDT 6:39 PM CDT
Civil Twilight 6:28 AM CDT 7:06 PM CDT
Nautical Twilight 5:57 AM CDT 7:37 PM CDT
Astronomical Twilight 5:25 AM CDT 8:09 PM CDT
Moon 11:20 AM CDT (10/2) 9:34 PM CDT (10/2)
Length of Visible Light 12h 37m
Length of Day
11h 44m
Waxing Crescent, 20% of the Moon is Illuminated
Oct 2
Waxing Crescent
Oct 5
First Quarter
Oct 13
Full
Oct 21
Last Quarter
Oct 27
New

Hourly Weather History & Observations

Time (CDT) Temp. Heat Index Dew Point Humidity Pressure Visibility Wind Dir Wind Speed Gust Speed Precip Events Conditions
12:52 AM 77.0 °F - 66.0 °F 69% 29.88 in 10.0 mi SSW 13.8 mph 21.9 mph N/A   Clear
1:52 AM 75.9 °F - 66.0 °F 71% 29.88 in 10.0 mi SSW 8.1 mph - N/A   Clear
2:52 AM 75.0 °F - 66.0 °F 73% 29.88 in 10.0 mi SSW 6.9 mph - N/A   Clear
3:52 AM 73.9 °F - 66.9 °F 79% 29.88 in 10.0 mi SW 6.9 mph - N/A   Clear
4:52 AM 73.9 °F - 66.9 °F 79% 29.88 in 10.0 mi SW 9.2 mph - N/A   Clear
5:52 AM 73.9 °F - 66.0 °F 76% 29.89 in 10.0 mi SW 9.2 mph - N/A   Clear
6:52 AM 73.0 °F - 66.0 °F 79% 29.90 in 10.0 mi SW 8.1 mph - N/A   Scattered Clouds
7:52 AM 73.9 °F - 66.9 °F 79% 29.92 in 10.0 mi SW 8.1 mph - N/A   Overcast
8:52 AM 75.9 °F - 68.0 °F 76% 29.91 in 10.0 mi WSW 6.9 mph - N/A   Overcast
9:52 AM 80.1 °F 82.7 °F 68.0 °F 67% 29.92 in 10.0 mi WSW 13.8 mph 20.7 mph N/A   Mostly Cloudy
10:52 AM 84.0 °F 87.8 °F 69.1 °F 61% 29.92 in 10.0 mi West 11.5 mph 25.3 mph N/A   Scattered Clouds
11:52 AM 82.9 °F 87.0 °F 70.0 °F 65% 29.93 in 10.0 mi WNW 11.5 mph - N/A   Mostly Cloudy
12:52 PM 86.0 °F 90.7 °F 70.0 °F 59% 29.91 in 10.0 mi West 9.2 mph - N/A   Mostly Cloudy
1:52 PM 86.0 °F 90.1 °F 69.1 °F 57% 29.89 in 10.0 mi West 9.2 mph 19.6 mph N/A   Overcast
2:52 PM 84.9 °F 88.8 °F 69.1 °F 59% 29.89 in 10.0 mi WSW 10.4 mph - N/A   Overcast
3:52 PM 84.9 °F 89.4 °F 70.0 °F 61% 29.89 in 10.0 mi SSW 4.6 mph - N/A   Overcast
4:52 PM 86.0 °F 90.1 °F 69.1 °F 57% 29.87 in 10.0 mi WSW 6.9 mph - N/A   Overcast
5:52 PM 84.0 °F 89.6 °F 72.0 °F 67% 29.88 in 10.0 mi Calm Calm - N/A   Overcast
6:52 PM 81.0 °F 85.2 °F 72.0 °F 74% 29.87 in 10.0 mi Calm Calm - N/A   Mostly Cloudy
7:52 PM 75.9 °F - 72.0 °F 87% 29.87 in 10.0 mi Calm Calm - N/A   Scattered Clouds
8:52 PM 75.0 °F - 72.0 °F 90% 29.86 in 10.0 mi East 3.5 mph - N/A   Mostly Cloudy
9:52 PM 73.0 °F - 69.1 °F 87% 29.87 in 10.0 mi South 6.9 mph - N/A   Scattered Clouds
10:52 PM 72.0 °F - 71.1 °F 97% 29.89 in 10.0 mi WSW 3.5 mph - N/A   Clear
11:52 PM 78.1 °F - 68.0 °F 71% 29.88 in 10.0 mi SSW 8.1 mph - N/A   Clear